When you browse on this site, cookies collect data to enhance your experience and personalize the content and advertising you see.
Visit our Privacy Policy to learn more. By continuing to use the site, you agree to this use of cookies and data.
  • In Lithuania
  • List of Countries
  • For 7 days
  • Water Temperature
  • Weather Map
  • Weather Widgets
  • user-avatar
    Login

    Hourly Weather Hrazdan

    Today, 30 May, Saturday

    Time Temperature Precipitation Wind Pressure Humidity
    00:00 +13°C° 0.1 mm 1 mps 611 mmHg 54%
    01:00 +12°C° 0 mm 1 mps 611 mmHg 54%
    02:00 +12°C° 0 mm 1 mps 611 mmHg 54%
    03:00 +11°C° 0 mm 1 mps 610 mmHg 54%
    04:00 +12°C° 0 mm 1 mps 611 mmHg 57%
    05:00 +13°C° 0 mm 1 mps 611 mmHg 60%
    06:00 +13°C° 0 mm 1 mps 612 mmHg 64%
    07:00 +15°C° 0 mm 1 mps 612 mmHg 58%
    08:00 +18°C° 0 mm 1 mps 613 mmHg 52%
    09:00 +19°C° 0 mm 2 mps 613 mmHg 45%
    10:00 +20°C° 0 mm 2 mps 613 mmHg 43%
    11:00 +20°C° 0 mm 3 mps 614 mmHg 40%
    12:00 +21°C° 0 mm 3 mps 614 mmHg 37%
    13:00 +21°C° 0 mm 3 mps 613 mmHg 37%
    14:00 +21°C° 0 mm 3 mps 613 mmHg 37%
    15:00 +22°C° 0 mm 3 mps 613 mmHg 36%
    16:00 +21°C° 0 mm 2 mps 613 mmHg 43%
    17:00 +21°C° 0 mm 1 mps 613 mmHg 49%
    18:00 +21°C° 0 mm 1 mps 613 mmHg 56%
    19:00 +19°C° 0 mm 1 mps 612 mmHg 60%
    20:00 +15°C° 0 mm 1 mps 612 mmHg 65%
    21:00 +13°C° 0 mm 2 mps 611 mmHg 69%
    22:00 +13°C° 0 mm 1 mps 612 mmHg 69%
    23:00 +12°C° 0 mm 1 mps 612 mmHg 68%

    Tomorrow, 31 May, Sunday

    Time Temperature Precipitation Wind Pressure Humidity
    00:00 +12°C° 0 mm 1 mps 612 mmHg 68%
    01:00 +11°C° 0 mm 1 mps 612 mmHg 68%
    02:00 +11°C° 0 mm 1 mps 612 mmHg 69%
    03:00 +10°C° 0 mm 1 mps 612 mmHg 70%
    04:00 +11°C° 0 mm 1 mps 612 mmHg 73%
    05:00 +11°C° 0 mm 1 mps 613 mmHg 76%
    06:00 +12°C° 0 mm 1 mps 613 mmHg 79%
    07:00 +13°C° 0 mm 1 mps 614 mmHg 71%
    08:00 +15°C° 0 mm 1 mps 614 mmHg 63%
    09:00 +18°C° 0 mm 1 mps 615 mmHg 55%
    10:00 +18°C° 0 mm 1 mps 615 mmHg 51%
    11:00 +18°C° 0 mm 2 mps 615 mmHg 48%
    12:00 +19°C° 0 mm 3 mps 615 mmHg 44%
    13:00 +20°C° 0 mm 3 mps 615 mmHg 42%
    14:00 +20°C° 0 mm 3 mps 614 mmHg 41%
    15:00 +20°C° 0 mm 3 mps 614 mmHg 40%
    16:00 +19°C° 0.1 mm 2 mps 614 mmHg 47%
    17:00 +20°C° 0.1 mm 1 mps 614 mmHg 54%
    18:00 +19°C° 0.1 mm 1 mps 613 mmHg 61%
    19:00 +16°C° 0 mm 1 mps 613 mmHg 67%
    20:00 +14°C° 0 mm 1 mps 612 mmHg 74%
    21:00 +12°C° 0 mm 1 mps 612 mmHg 80%
    22:00 +10°C° 0 mm 2 mps 611 mmHg 78%
    23:00 +10°C° 0 mm 2 mps 611 mmHg 77%

    Day after tomorrow, 1 June, Monday

    Time Temperature Precipitation Wind Pressure Humidity
    00:00 +10°C° 0 mm 2 mps 611 mmHg 75%
    01:00 +10°C° 0 mm 2 mps 611 mmHg 75%
    02:00 +10°C° 0 mm 1 mps 611 mmHg 74%
    03:00 +10°C° 0 mm 1 mps 611 mmHg 74%
    04:00 +11°C° 0 mm 1 mps 611 mmHg 73%
    05:00 +12°C° 0 mm 1 mps 611 mmHg 73%
    06:00 +13°C° 0 mm 1 mps 612 mmHg 72%
    07:00 +15°C° 0 mm 1 mps 612 mmHg 64%
    08:00 +16°C° 0 mm 1 mps 613 mmHg 56%
    09:00 +18°C° 0 mm 2 mps 613 mmHg 48%
    10:00 +19°C° 0 mm 2 mps 614 mmHg 45%
    11:00 +20°C° 0 mm 3 mps 614 mmHg 43%
    12:00 +21°C° 0 mm 4 mps 614 mmHg 41%
    13:00 +21°C° 0 mm 4 mps 614 mmHg 41%
    14:00 +21°C° 0 mm 4 mps 613 mmHg 41%
    15:00 +21°C° 0 mm 4 mps 613 mmHg 41%
    16:00 +21°C° 0 mm 3 mps 613 mmHg 47%
    17:00 +20°C° 0 mm 2 mps 613 mmHg 52%
    18:00 +19°C° 0 mm 2 mps 612 mmHg 58%
    19:00 +17°C° 0 mm 2 mps 612 mmHg 57%
    20:00 +15°C° 0 mm 1 mps 611 mmHg 56%
    21:00 +13°C° 0 mm 1 mps 611 mmHg 55%
    22:00 +13°C° 0 mm 1 mps 610 mmHg 54%
    23:00 +12°C° 0 mm 1 mps 610 mmHg 53%

    2 June, Tuesday

    Time Temperature Precipitation Wind Pressure Humidity
    00:00 +12°C° 0 mm 1 mps 610 mmHg 52%
    01:00 +12°C° 0 mm 2 mps 610 mmHg 53%
    02:00 +12°C° 0 mm 2 mps 610 mmHg 53%
    03:00 +10°C° 0 mm 2 mps 609 mmHg 53%
    04:00 +12°C° 0 mm 2 mps 610 mmHg 56%
    05:00 +13°C° 0 mm 2 mps 610 mmHg 58%
    06:00 +14°C° 0 mm 2 mps 611 mmHg 60%
    07:00 +16°C° 0 mm 3 mps 611 mmHg 54%
    08:00 +18°C° 0 mm 4 mps 612 mmHg 49%
    09:00 +20°C° 0 mm 5 mps 612 mmHg 43%
    10:00 +21°C° 0 mm 5 mps 613 mmHg 42%
    11:00 +22°C° 0 mm 6 mps 613 mmHg 40%
    12:00 +23°C° 0 mm 6 mps 613 mmHg 39%
    13:00 +23°C° 0 mm 6 mps 612 mmHg 40%
    14:00 +23°C° 0 mm 6 mps 612 mmHg 41%
    15:00 +23°C° 0 mm 6 mps 612 mmHg 43%
    16:00 +22°C° 0 mm 4 mps 612 mmHg 48%
    17:00 +21°C° 0 mm 2 mps 611 mmHg 54%
    18:00 +20°C° 0 mm 1 mps 611 mmHg 60%
    19:00 +19°C° 0 mm 1 mps 611 mmHg 58%
    20:00 +16°C° 0 mm 1 mps 611 mmHg 57%
    21:00 +15°C° 0 mm 1 mps 610 mmHg 55%
    22:00 +14°C° 0 mm 1 mps 610 mmHg 53%
    23:00 +13°C° 0 mm 2 mps 610 mmHg 52%

    3 June, Wednesday

    Time Temperature Precipitation Wind Pressure Humidity
    00:00 +12°C° 0 mm 2 mps 609 mmHg 50%
    01:00 +12°C° 0 mm 2 mps 609 mmHg 48%
    02:00 +10°C° 0 mm 2 mps 609 mmHg 46%
    03:00 +10°C° 0 mm 2 mps 609 mmHg 43%
    04:00 +10°C° 0 mm 2 mps 609 mmHg 47%
    05:00 +12°C° 0 mm 2 mps 609 mmHg 50%
    06:00 +13°C° 0 mm 2 mps 610 mmHg 53%
    07:00 +15°C° 0 mm 2 mps 610 mmHg 49%
    08:00 +17°C° 0 mm 2 mps 611 mmHg 44%
    09:00 +20°C° 0 mm 2 mps 612 mmHg 40%
    10:00 +20°C° 0 mm 3 mps 612 mmHg 39%
    11:00 +21°C° 0 mm 4 mps 612 mmHg 39%
    12:00 +22°C° 0 mm 5 mps 613 mmHg 38%
    13:00 +21°C° 0 mm 4 mps 612 mmHg 43%
    14:00 +19°C° 0 mm 3 mps 612 mmHg 49%
    15:00 +18°C° 0 mm 3 mps 611 mmHg 54%
    16:00 +18°C° 0.2 mm 2 mps 611 mmHg 60%
    17:00 +17°C° 0.2 mm 2 mps 611 mmHg 66%
    18:00 +16°C° 0.2 mm 2 mps 611 mmHg 71%
    19:00 +15°C° 0.1 mm 2 mps 611 mmHg 74%
    20:00 +13°C° 0.1 mm 2 mps 610 mmHg 76%
    21:00 +12°C° 0.1 mm 2 mps 610 mmHg 79%
    22:00 +12°C° 0 mm 2 mps 610 mmHg 77%
    23:00 +10°C° 0 mm 2 mps 610 mmHg 76%

    4 June, Thursday

    Time Temperature Precipitation Wind Pressure Humidity
    00:00 +10°C° 0 mm 2 mps 610 mmHg 74%
    01:00 +10°C° 0 mm 2 mps 609 mmHg 75%
    02:00 +11°C° 0 mm 1 mps 609 mmHg 75%
    03:00 +11°C° 0 mm 1 mps 609 mmHg 75%
    04:00 +12°C° 0 mm 1 mps 610 mmHg 74%
    05:00 +13°C° 0 mm 1 mps 610 mmHg 73%
    06:00 +13°C° 0 mm 1 mps 610 mmHg 73%
    07:00 +15°C° 0 mm 1 mps 611 mmHg 64%
    08:00 +17°C° 0 mm 2 mps 611 mmHg 56%
    09:00 +19°C° 0 mm 2 mps 612 mmHg 48%
    10:00 +19°C° 0 mm 3 mps 612 mmHg 46%
    11:00 +20°C° 0 mm 4 mps 612 mmHg 44%
    12:00 +21°C° 0 mm 4 mps 613 mmHg 41%
    13:00 +21°C° 0 mm 4 mps 613 mmHg 41%
    14:00 +21°C° 0 mm 4 mps 613 mmHg 40%
    15:00 +21°C° 0 mm 4 mps 612 mmHg 40%
    16:00 +21°C° 0 mm 3 mps 613 mmHg 44%
    17:00 +20°C° 0 mm 2 mps 613 mmHg 48%
    18:00 +21°C° 0 mm 1 mps 613 mmHg 52%
    19:00 +18°C° 0 mm 1 mps 612 mmHg 55%
    20:00 +15°C° 0 mm 1 mps 612 mmHg 58%
    21:00 +13°C° 0 mm 1 mps 611 mmHg 61%
    22:00 +12°C° 0 mm 2 mps 611 mmHg 62%
    23:00 +12°C° 0 mm 2 mps 611 mmHg 63%
    Show more